Location: Zagreb
(45.8000°N, 16.0000°E)
Time: 08:54:48
(UTC+02:00)

Courier 1B - Pass Details

Date: 16 August 2020
Orbit: 962 x 1209 km, 28.3° (Epoch: 27 September)

Event Time Altitude Azimuth Distance (km) Brightness Sun altitude
Rises 17:27:33 0° 224° (SW) 4,092 11.5 25.7°
Reaches altitude 10° 17:31:34 10° 206° (SSW) 3,109 10.7 25.0°
Maximum altitude 17:36:12 17° 169° (SSE) 2,570 9.8 24.2°
Drops below altitude 10° 17:40:45 10° 131° (SE) 3,027 9.8 23.4°
Sets 17:44:34 0° 113° (ESE) 3,941 10.2 22.7°
